[[{"header":{"parameterUnit":"m.s-1","parameterCategory":1,"la1":30.2991,"la2":30.254,"lo1":-89.0895,"lo2":-89.0444,"dy":0.0017,"dx":0.0017,"nx":28,"ny":28,"refTime":"2025-12-05T09:00:00:Z","depth":0,"parameterNumber":2,"parameterNumberName":"U-component_of_WINDS"},"data":[0,0,0,0,0,0,0,0,0,0,0,0,0,0,0,0,0,0,0,0,0,0,0,0,0,0,0,0,0,0,0,0,0,0,0,0,0,0,0,0,0,0,0,0,0,0,0,0,0,0,0,0,0,0,0,0,0,0,-3.5208,-3.5209,0,-3.532,-3.5321,-3.5323,-3.5278,-3.5275,-3.5272,-3.527,-3.5387,-3.5392,-3.5398,0,0,0,0,0,0,0,0,0,0,0,0,0,-3.4956,-3.496,-3.5207,-3.5209,-3.521,-3.532,-3.5321,-3.5323,-3.5278,-3.5275,-3.5272,-3.5269,-3.5385,-3.5392,-3.5398,0,0,0,0,0,0,0,0,0,0,0,0,0,-3.5066,-3.4962,-3.5207,-3.5201,-3.5202,-3.5319,-3.5321,-3.5323,-3.5279,-3.5275,-3.5271,-3.5267,-3.5383,-3.5391,-3.5399,-3.553,0,0,-3.5425,-3.5428,0,0,0,0,0,0,0,0,-3.506,-3.5076,-3.5201,-3.5202,-3.5203,-3.5281,-3.5275,-3.5393,-3.528,-3.525,-3.527,-3.5265,-3.5355,-3.5365,-3.5395,-3.5536,-3.5541,-3.5426,-3.5431,-3.5434,-3.5437,0,0,0,0,0,0,0,-3.5052,-3.507,-3.5252,-3.5202,-3.5204,-3.5193,-3.5205,-3.5297,-3.5323,-3.5252,-3.5249,-3.5263,-3.5355,-3.5387,-3.5398,-3.5542,-3.5425,-3.5433,-3.5438,-3.5441,-3.5794,-3.5798,0,0,0,0,0,0,-3.5044,-3.5064,-3.5248,-3.5255,-3.512,-3.5201,-3.5214,-3.526,-3.5322,-3.5328,-3.5266,-3.526,-3.5375,-3.5388,-3.5402,-3.5557,-3.5434,-3.5442,-3.5447,-3.579,-3.5795,-3.58,0,0,0,0,0,0,-3.5039,-3.5061,-3.5244,-3.5159,-3.5182,-3.521,-3.5262,-3.5264,-3.5296,-3.5333,-3.5337,-3.5294,-3.5372,-3.539,-3.5498,-3.556,-3.5446,-3.5453,-3.5785,-3.5792,-3.5798,-3.587,0,0,0,0,0,0,-3.5032,-3.5059,-3.5109,-3.5161,-3.5186,-3.5338,-3.5266,-3.5269,-3.5311,-3.5304,-3.536,-3.5366,-3.5371,-3.5486,-3.5506,-3.557,-3.546,-3.5779,-3.5788,-3.5796,-3.5862,-3.5878,-3.5892,0,0,0,0,0,-3.5023,-3.5126,-3.5112,-3.5134,-3.5249,-3.5342,-3.5357,-3.5359,-3.5316,-3.5366,-3.5389,-3.5364,-3.5551,-3.5497,-3.552,-3.5587,-3.5775,-3.5785,-3.5795,-3.5855,-3.5875,-3.5891,0,0,0,0,0,0,-3.5082,-3.5132,-3.5117,-3.524,-3.5287,-3.5334,-3.5397,-3.538,-3.5441,-3.5432,-3.5434,-3.5447,-3.5558,-3.5584,-3.5523,-3.5716,-3.5657,-3.5671,-3.5695,-3.5714,-3.5728,-3.5718,-3.5467,0,0,0,0,0,-3.5109,-3.5179,-3.522,-3.5324,-3.5349,-3.5369,-3.541,-3.5408,-3.5457,-3.5477,-3.5508,-3.5557,-3.5626,-3.5672,-3.5738,-3.5867,-3.5877,-3.5924,-3.5939,-3.5951,-3.5963,-3.6031,-3.6051,-3.5832,-3.5832,-3.5832,0,0,-3.5165,-3.5202,-3.5247,-3.5337,-3.5373,-3.5446,-3.5386,-3.5467,-3.5521,-3.5489,-3.5592,-3.5617,-3.5672,-3.579,-3.5844,-3.5815,-3.6026,-3.5963,-3.5973,-3.5978,-3.6043,-3.6064,-3.6082,-3.5839,-3.5838,-3.5837,0,0,-3.5305,-3.5341,-3.543,-3.5468,-3.5523,-3.5536,-3.5557,-3.5608,-3.5622,-3.5726,-3.5703,-3.5769,-3.5889,-3.5928,-3.5964,-3.6119,-3.6097,-3.6141,-3.6218,-3.6284,-3.6301,-3.6316,-3.6369,-3.6389,-3.6153,-3.6154,-3.6154,0,-3.5368,-3.5477,-3.5479,-3.556,-3.56,-3.5575,-3.5665,-3.5702,-3.5776,-3.5804,-3.5771,-3.592,-3.5956,-3.6082,-3.6119,-3.615,-3.6174,-3.6133,-3.6299,-3.6314,-3.6328,-3.6379,-3.6399,-3.6158,-3.6158,-3.6157,-3.6157,0,-3.5551,-3.5627,-3.5693,-3.5764,-3.5812,-3.5898,-3.5912,-3.5961,-3.5955,-3.5972,-3.6077,-3.6119,-3.6192,-3.6222,-3.6218,-3.6348,-3.6328,-3.6297,-3.6237,-3.6354,-3.6401,-3.6421,-3.6165,-3.6163,-3.6162,-3.6161,0,0,-3.5729,-3.58,-3.5824,-3.5855,-3.5914,-3.5973,-3.6058,-3.6129,-3.6169,-3.6223,-3.6292,-3.6395,-3.6366,-3.6407,-3.6407,-3.6466,-3.6583,-3.6428,-3.6429,-3.6453,-3.6727,-3.6747,-3.6769,-3.6571,-3.6575,-3.6578,-3.6721,0,-3.5871,-3.6018,-3.6022,-3.6157,-3.6226,-3.6203,-3.6277,-3.6322,-3.634,-3.6402,-3.6423,-3.6494,-3.6452,-3.6476,-3.6533,-3.6557,-3.6638,-3.6547,-3.6635,-3.6638,-3.6618,-3.6795,-3.6817,-3.695,-3.674,-3.6743,-3.6745,0,-3.6056,-3.6113,-3.6254,-3.6302,-3.6332,-3.6398,-3.6462,-3.6522,-3.6573,-3.6582,-3.6627,-3.6619,-3.6705,-3.6644,-3.6763,-3.6701,-3.6738,-3.6755,-3.676,-3.6766,-3.6696,-3.6802,-3.6993,-3.7012,-3.6775,-3.6773,-3.677,0,-3.6168,-3.6281,-3.6379,-3.6407,-3.6467,-3.6513,-3.654,-3.6587,-3.6629,-3.6686,-3.6713,-3.678,-3.6817,-3.6869,-3.6879,-3.6834,-3.6997,-3.6937,-3.7006,-3.7005,-3.7038,-3.7036,-3.7235,-3.7068,-3.7067,-3.7067,-3.7066,0,-3.6324,-3.6411,-3.643,-3.649,-3.6586,-3.6591,-3.6686,-3.671,-3.6752,-3.6816,-3.6802,-3.6863,-3.6874,-3.6938,-3.6947,-3.7042,-3.706,-3.7069,-3.7069,-3.7068,-3.7066,-3.709,-3.7079,-3.7072,-3.7071,-3.707,-3.7069,0,-3.6464,-3.6481,-3.6586,-3.6634,-3.6648,-3.6716,-3.6757,-3.6815,-3.6832,-3.6914,-3.6933,-3.696,-3.7034,-3.705,-3.7139,-3.7144,-3.7257,-3.725,-3.7239,-3.7238,-3.7304,-3.7296,-3.7522,-3.7551,-3.7368,-3.737,-3.7372,0,-3.6561,-3.6627,-3.6681,-3.6723,-3.6752,-3.682,-3.6862,-3.687,-3.6915,-3.6977,-3.7027,-3.71,-3.7157,-3.7277,-3.7304,-3.7372,-3.7365,-3.7439,-3.7374,-3.7371,-3.7362,-3.7357,-3.7362,-3.745,-3.7452,-3.7454,-3.7455,0,-3.6731,-3.6735,-3.6797,-3.6861,-3.6912,-3.6963,-3.7012,-3.7048,-3.7062,-3.7113,-3.7188,-3.7233,-3.7323,-3.7394,-3.7461,-3.749,-3.7475,-3.7476,-3.7495,-3.7492,-3.7482,-3.7486,-3.727,-3.747,-3.7469,-3.7467,-3.7467,-3.7466,-3.685,-3.6907,-3.6953,-3.7022,-3.706,-3.7105,-3.7161,-3.7185,-3.7248,-3.732,-3.7322,-3.7403,-3.7451,-3.754,-3.7573,-3.7636,-3.7613,-3.7641,-3.7648,-3.7654,-3.7658,-3.7475,-3.7649,-3.7649,-3.7649,-3.7648,-3.7648,0,-3.7016,-3.7045,-3.7108,-3.7176,-3.723,-3.7212,-3.7265,-3.7311,-3.7383,-3.7429,-3.7486,-3.7572,-3.7641,-3.7675,-3.7743,-3.7788,-3.7783,-3.7805,-3.78,-3.7807,-3.7677,-3.7652,-3.7808,-3.7808,-3.7808,-3.7808,-3.7808,-3.7808,-3.7109,-3.7203,-3.7213,-3.7326,-3.7355,-3.7433,-3.7465,-3.7507,-3.7543,-3.7639,-3.7697,-3.7718,-3.7759,-3.783,-3.7893,-3.7901,-3.7926,-3.7951,-3.7956,-3.7833,-3.7816,-3.7801,-3.7777,-3.7957,-3.7958,-3.808,-3.8081,-3.8082]},{"header":{"parameterUnit":"m.s-1","parameterCategory":1,"la1":30.2991,"la2":30.254,"lo1":-89.0895,"lo2":-89.0444,"dy":0.0017,"dx":0.0017,"nx":28,"ny":28,"refTime":"2025-12-05T09:00:00:Z","depth":0,"parameterNumber":3,"parameterNumberName":"V-component_of_WINDS"},"data":[0,0,0,0,0,0,0,0,0,0,0,0,0,0,0,0,0,0,0,0,0,0,0,0,0,0,0,0,0,0,0,0,0,0,0,0,0,0,0,0,0,0,0,0,0,0,0,0,0,0,0,0,0,0,0,0,0,0,1.8169,1.8169,0,1.8172,1.8172,1.8172,1.8101,1.8099,1.8097,1.8095,1.8097,1.8099,1.8101,0,0,0,0,0,0,0,0,0,0,0,0,0,1.8101,1.8102,1.8169,1.8169,1.8169,1.8172,1.8172,1.8172,1.8101,1.8099,1.8096,1.8094,1.8097,1.8099,1.8101,0,0,0,0,0,0,0,0,0,0,0,0,0,1.812,1.8103,1.8168,1.8134,1.813,1.8172,1.8172,1.8172,1.8101,1.8098,1.8096,1.8093,1.8096,1.8099,1.8101,1.8176,0,0,1.811,1.8111,0,0,0,0,0,0,0,0,1.8119,1.8122,1.8139,1.8136,1.8133,1.8133,1.8149,1.8173,1.8102,1.8112,1.8095,1.8092,1.8111,1.8113,1.812,1.8176,1.8176,1.811,1.8112,1.8113,1.8114,0,0,0,0,0,0,0,1.8117,1.8122,1.817,1.8139,1.8135,1.8118,1.8117,1.8153,1.8128,1.8111,1.8106,1.8108,1.8109,1.8117,1.8119,1.8176,1.811,1.8113,1.8114,1.8115,1.8295,1.8298,0,0,0,0,0,0,1.8121,1.8121,1.817,1.817,1.8118,1.8121,1.8121,1.8136,1.8127,1.8123,1.811,1.8104,1.8114,1.8116,1.8119,1.8206,1.8113,1.8116,1.8117,1.8292,1.8296,1.8299,0,0,0,0,0,0,1.812,1.8126,1.8169,1.8144,1.8148,1.8125,1.8143,1.8137,1.8145,1.8126,1.8121,1.8123,1.8112,1.8115,1.8163,1.8205,1.8117,1.8119,1.8289,1.8293,1.8298,1.8382,0,0,0,0,0,0,1.8118,1.8126,1.8154,1.8145,1.815,1.8213,1.8145,1.8139,1.815,1.8143,1.8137,1.8133,1.811,1.8159,1.8166,1.8208,1.8122,1.8285,1.8291,1.8296,1.8375,1.8389,1.84,0,0,0,0,0,1.8116,1.8177,1.8156,1.8162,1.8185,1.8216,1.8219,1.819,1.8154,1.8182,1.817,1.8134,1.82,1.8164,1.8171,1.8215,1.8282,1.8289,1.8296,1.8369,1.8386,1.84,0,0,0,0,0,0,1.8191,1.8175,1.8151,1.8212,1.8216,1.8204,1.8238,1.8209,1.8223,1.8215,1.8179,1.8179,1.8233,1.8228,1.8189,1.8287,1.8234,1.8243,1.8288,1.8304,1.8316,1.8316,1.8124,0,0,0,0,0,1.8214,1.8241,1.8226,1.8281,1.8284,1.8261,1.8274,1.8252,1.8255,1.8256,1.8247,1.8251,1.8273,1.8288,1.8307,1.8374,1.8372,1.8408,1.842,1.8431,1.8439,1.8475,1.8491,1.8322,1.8322,1.8322,0,0,1.8263,1.8258,1.8277,1.8296,1.8296,1.8325,1.8263,1.8296,1.8317,1.8261,1.8305,1.83,1.8302,1.836,1.8385,1.8358,1.8485,1.844,1.8448,1.8451,1.8484,1.85,1.8514,1.8327,1.8326,1.8326,0,0,1.8367,1.8366,1.8411,1.8414,1.8416,1.84,1.8412,1.8405,1.8399,1.8443,1.8402,1.8426,1.8464,1.8468,1.8475,1.8582,1.8549,1.8589,1.8655,1.8691,1.8704,1.8716,1.8754,1.8769,1.8597,1.8597,1.8597,0,1.8427,1.8469,1.8438,1.8475,1.8484,1.8436,1.8482,1.8485,1.8494,1.8501,1.8471,1.8519,1.8517,1.8575,1.8602,1.8609,1.8621,1.8589,1.8705,1.8716,1.8726,1.8763,1.8778,1.8602,1.8601,1.8601,1.86,0,1.8543,1.8573,1.861,1.862,1.8634,1.8675,1.8651,1.8669,1.8646,1.8634,1.868,1.8676,1.8694,1.8706,1.8684,1.8763,1.8746,1.8711,1.8657,1.8748,1.8782,1.8795,1.8609,1.8607,1.8606,1.8604,0,0,1.8693,1.8687,1.8701,1.8705,1.8705,1.8727,1.8767,1.8785,1.8801,1.8809,1.8841,1.8875,1.8843,1.8851,1.8829,1.886,1.8946,1.8821,1.8821,1.8845,1.9033,1.906,1.9076,1.8924,1.8927,1.8929,1.9033,0,1.8794,1.8861,1.8836,1.8905,1.8932,1.8887,1.8921,1.8925,1.8915,1.8937,1.8926,1.8951,1.8907,1.8911,1.894,1.893,1.8983,1.8922,1.8954,1.8956,1.8956,1.9094,1.9122,1.922,1.9046,1.9048,1.905,0,1.8921,1.8935,1.9007,1.9003,1.9014,1.9045,1.906,1.9082,1.9085,1.9076,1.9086,1.9057,1.9095,1.9042,1.9095,1.9054,1.9066,1.9063,1.9066,1.9068,1.9008,1.91,1.9251,1.9266,1.907,1.9069,1.9067,0,1.9024,1.9061,1.9109,1.9114,1.911,1.9133,1.9133,1.9133,1.9146,1.916,1.9168,1.9185,1.9195,1.9209,1.9186,1.9149,1.9243,1.9187,1.9236,1.9237,1.9258,1.9257,1.9413,1.9265,1.9265,1.9265,1.9264,0,1.914,1.9186,1.9155,1.9185,1.9235,1.9206,1.9256,1.9251,1.9252,1.928,1.9242,1.9269,1.9236,1.9261,1.9243,1.929,1.9294,1.9288,1.9283,1.9292,1.9293,1.9299,1.9292,1.9269,1.9268,1.9267,1.9266,0,1.9263,1.9244,1.9294,1.9287,1.9286,1.9324,1.9318,1.9345,1.9333,1.9369,1.9375,1.9356,1.9383,1.9362,1.9387,1.9375,1.9438,1.9423,1.9437,1.9433,1.9483,1.9479,1.9649,1.967,1.9509,1.9511,1.9512,0,1.9338,1.9373,1.937,1.9386,1.9388,1.9415,1.9428,1.94,1.9416,1.9423,1.945,1.9473,1.9491,1.9535,1.9524,1.9543,1.9529,1.9587,1.9531,1.954,1.953,1.9529,1.9532,1.9598,1.96,1.9602,1.9603,0,1.9474,1.9463,1.9484,1.9503,1.952,1.9533,1.9542,1.9558,1.953,1.9549,1.9576,1.959,1.9617,1.9641,1.9657,1.9656,1.9626,1.9621,1.9633,1.9643,1.965,1.9647,1.9468,1.9617,1.9615,1.9614,1.9614,1.9613,1.9575,1.9604,1.9608,1.9632,1.9637,1.9648,1.9673,1.9665,1.9687,1.9707,1.969,1.9723,1.9726,1.9744,1.9748,1.9773,1.9749,1.9767,1.9771,1.9776,1.9784,1.9646,1.9776,1.9775,1.9775,1.9775,1.9774,0,1.971,1.971,1.9733,1.9748,1.9768,1.9738,1.9748,1.9767,1.9796,1.9802,1.9821,1.9852,1.9876,1.9867,1.9887,1.991,1.9896,1.9916,1.9914,1.9915,1.9804,1.9791,1.9927,1.9927,1.9927,1.9926,1.9926,1.9926,1.9782,1.983,1.982,1.987,1.9869,1.9902,1.991,1.992,1.9924,1.9962,1.9981,1.9976,1.9976,1.9997,2.0017,2.0014,2.0023,2.0049,2.004,1.9937,1.9922,1.9908,1.9896,2.0051,2.0051,2.0149,2.015,2.015]}]]